Погода в Ве

Новая Каледония     20°56′57″S   167°21′11″E
темп.,
°C
ветер,
м/с
пор.,
м/с
влажн.,
%
обл.,
%
осадки,
мм/ч
давл.,
гПа
погр.,
м
19 апреля, пн
пн1923:00+24в378925 1.6 1013221
02:00+23в379131 0.8 1012277
05:00+23всв359323 4.1 1012162
08:00+25всв358734 3.1 1014425
11:00+27св237967 6.0 1013742
14:00+28св227452 1.2 1012824
17:00+26св238359 1.5 1012192
20:00+24всв228890 0.0 101476
20 апреля, вт
вт2023:00+24в229039 0.1 101471
02:00+24вюв119060 0.0 101363
05:00+23ююв11925 0.0 101339
08:00+26ююв11845 0.0 1015255
11:00+28ю337343 0.1 1015988
14:00+27ююв557437 0.2 1013843
17:00+25ююв578218 0.2 1013663
20:00+24ююв5880100 0.0 1016656
21 апреля, ср
ср2123:00+24юв4782100 0.1 1015525
02:00+24юв3681100 0.1 1014402
05:00+24юв3682100 0.1 1015376
08:00+24юв3581100 0.0 1016580
11:00+26юв4474100 0.1 1015883
14:00+26юв4472100 0.0 1013875
17:00+24ююв3683100 0.1 1013328
20:00+24юв5887100 0.3 1016414
22 апреля, чт
чт2223:00+23юв478863 0.4 1015332
02:00+23вюв35911 0.0 1013206
05:00+23вюв359119 0.1 1013172
08:00+25юв35835 0.3 1014428
11:00+27юв32690 0.3 1014784
14:00+27ююв447029 0.0 1012870
17:00+25юв468012 0.0 1012585
20:00+23юв478275 0.0 1014421
23 апреля, пт
пт2323:00+23юв4782100 0.0 1014411
02:00+23юв468496 0.1 1013366
05:00+23юв368499 0.1 1013312
08:00+24юв358062 0.1 1015438
11:00+26юв446717 0.1 1014909
14:00+26юв436752 0.0 1012992
17:00+24юв3578100 0.0 1013368
20:00+23юв478297 0.0 1015365